Location: Contre
(49.7477°N, 2.0963°E)
Time: 12:59:07
(UTC+00:00)

Meteor 2-12 Rocket - Pass Details

Date: 11 November 2025
Orbit: 935 x 957 km, 82.5° (Epoch: 05 December)

Event Time Altitude Azimuth Distance (km) Brightness Sun altitude
Rises 20:19:45 0° 333° (NNW) 3,631 8.0 -39.5°
Reaches altitude 10° 20:24:40 10° 299° (WNW) 2,672 7.5 -40.2°
Maximum altitude 20:25:57 11° 286° (WNW) 2,617 7.4 -40.4°
Drops below altitude 10° 20:27:15 10° 274° (W) 2,665 7.4 -40.6°
Sets 20:32:08 0° 239° (WSW) 3,596 7.8 -41.3°
